This is the latest recevied weather packets stored in our database for station/object W0AKY-13. If no packets are shown the sender has not sent any weather packets the latest 10 day(s).
| Time | Temp. | Humidity | Pressure | Rain* | Wind** | Luminosity | Snow |
|---|---|---|---|---|---|---|---|
| 1788374057 | 36.11° C | 44% | 1013.8 hPa | 0 mm | - | 574 W/m² | - |
| 1788373743 | 36.11° C | 45% | 1014 hPa | 0 mm | - | 573 W/m² | - |
| 1788373440 | 36.11° C | 44% | 1013.7 hPa | 0 mm | - | 575 W/m² | - |
| 1788373136 | 36.11° C | 48% | 1013.9 hPa | 0 mm | - | 575 W/m² | - |
| 1788372831 | 36.11° C | 46% | 1013.8 hPa | 0 mm | - | 577 W/m² | - |
| 1788372531 | 36.11° C | 46% | 1014 hPa | 0 mm | - | 574 W/m² | - |
| 1788372226 | 35.56° C | 46% | 1014.1 hPa | 0 mm | - | 573 W/m² | - |
| 1788371921 | 35.56° C | 48% | 1014.2 hPa | 0 mm | - | 573 W/m² | - |
| 1788371617 | 35.56° C | 47% | 1014 hPa | 0 mm | - | 566 W/m² | - |
| 1788371312 | 35.56° C | 46% | 1014.1 hPa | 0 mm | - | 567 W/m² | - |
| 1788371010 | 35.56° C | 47% | 1014.3 hPa | 0 mm | - | 563 W/m² | - |
| 1788370705 | 35.56° C | 51% | 1014.3 hPa | 0 mm | - | 560 W/m² | - |
| 1788370405 | 35.56° C | 47% | 1014.1 hPa | 0 mm | - | 556 W/m² | - |
| 1788370104 | 35.56° C | 45% | 1014.4 hPa | 0 mm | - | 550 W/m² | - |
| 1788369799 | 35.56° C | 48% | 1014.2 hPa | 0 mm | - | 543 W/m² | - |
| 1788369494 | 35° C | 50% | 1014.2 hPa | 0 mm | - | 539 W/m² | - |
| 1788369189 | 35° C | 47% | 1014.3 hPa | 0 mm | - | 532 W/m² | - |
| 1788368886 | 35° C | 48% | 1014.4 hPa | 0 mm | - | 525 W/m² | - |
| 1788368581 | 34.44° C | 50% | 1014.4 hPa | 0 mm | - | 510 W/m² | - |
| 1788368276 | 34.44° C | 50% | 1014.4 hPa | 0 mm | - | 510 W/m² | - |
| 1788367975 | 35° C | 48% | 1014.8 hPa | 0 mm | - | 504 W/m² | - |
| 1788367671 | 34.44° C | 49% | 1014.5 hPa | 0 mm | - | 500 W/m² | - |
| 1788367370 | 33.89° C | 50% | 1014.5 hPa | 0 mm | - | 493 W/m² | - |
| 1788367065 | 33.89° C | 50% | 1014.4 hPa | 0 mm | - | 482 W/m² | - |
| 1788366765 | 33.89° C | 50% | 1014.5 hPa | 0 mm | - | 475 W/m² | - |
* Rain latest hour (hover to see other rain measurements)
** Current wind speed in m/s (hover to see current wind gust speed)